Regional Weather Roundup
Issued by NWS Midland/Odessa, TX

Skip options and go directly to product.
Home | Oldest Version | Previous Version | Current Version | All | Text Only | Save Text | Print | Product List | Glossary Off

Skip product version selection by date and time.   

574
ASUS44 KMAF 170210
RWRMAF
MIDLAND AREA WEATHER ROUNDUP
NATIONAL WEATHER SERVICE MIDLAND TX
800 PM CST MON JAN 16 2017

...IN SOUTHWEST TEXAS AND SOUTHEAST NEW MEXICO...

CITY           SKY/WX    TMP DP  RH WIND       PRES   REMARKS
ALPINE         CLEAR     44  33  64 CALM      30.10R
ANDREWS        FAIR      48  37  65 CALM      30.04R
ARTESIA        CLEAR     50  41  71 SW5       30.03R
BIG SPRING     CLOUDY    49  42  78 E9        30.05R
CARLSBAD       CLEAR     48  39  71 W10       30.01R
DRYDEN           N/A     57  42  57 SE7       29.99R
FORT STOCKTON  MOCLDY    53  39  59 E6        30.02R
GUAD PASS      CLEAR     45  28  51 W17       30.05R WCI  38
HOBBS          NOT AVBL
MARFA          CLEAR     43  31  62 CALM      30.05R
MIDLAND AIRPK  CLEAR     54  40  59 CALM      30.03R
MIDLAND INTL   CLEAR     52  38  58 SE3       30.03R
ODESSA         CLEAR     54  36  50 E3        30.03R
PECOS          CLEAR     54  37  53 NW3       30.01R
PRESIDIO       FAIR      55  38  52 CALM      29.97R
SEMINOLE       CLEAR     49  40  71 CALM      30.05R
SNYDER         CLEAR     51  42  71 NE6       30.06R
WINK           CLEAR     50  35  56 N5        30.00R
$$
...OTHER STATIONS IN TEXAS...

CITY           SKY/WX    TMP DP  RH WIND       PRES   REMARKS
ABILENE        CLOUDY    51  44  77 E7        30.05R
AMARILLO       CLOUDY    38  33  82 NW14      30.09R WCI  30
AUSTIN         CLOUDY    61  56  83 E7        30.00R
BROWNSVILLE    MOCLDY    70  67  90 SE3       29.96R
CORPUS CHRISTI CLOUDY    70  67  90 SE14      29.94R
DALLAS FTW     CLOUDY    55  46  71 N10       30.04R
DEL RIO        MOCLDY    61  43  51 NW3       29.98R
EL PASO        CLOUDY    52  35  52 N3        30.02R
HOUSTON INT    CLOUDY    73  66  78 S6        30.00R
LUBBOCK        MOCLDY    42  36  79 NE9       30.08R WCI  37
SAN ANGELO     CLOUDY    53  44  71 SE3       30.02R
SAN ANTONIO    CLOUDY    64  53  67 NE6       29.98S
WACO           CLOUDY    61  53  75 N3        30.02R
WICHITA FALLS  NOT AVBL
$$
...OTHER LOCATIONS IN NEW MEXICO...

CITY           SKY/WX    TMP DP  RH WIND       PRES   REMARKS
ALAMAGORDO     PTCLDY    45  37  76 SE7       30.06R
ALBUQUERQUE    CLOUDY    45  38  76 SW9       30.05R
CANNON AFB     PTCLDY    38  38 100 NE10      30.09R WCI  32
CLOVIS         CLEAR     37  30  75 NE12      30.09R WCI  30
HOLLOMAN AFB   MOCLDY    47  44  89 W5        30.08R
ROSWELL        CLOUDY    51  40  65 N9        30.02R
RUIDOSO        CLOUDY    37  32  81 CALM      30.10R
SANTA FE       CLOUDY    37  33  85 SE12      30.05R WCI  29
TRUTH OR CONSE LGT RAIN  44  38  79 N8        30.04R WCI  39
TUCUMCARI      CLOUDY    41  32  70 NE14      30.09R WCI  33
$$

  • National Weather Service
  • Southern Region Headquarters
  • 819 Taylor Street, Room 10A06
  • Fort Worth, TX 76102
  • Page Author: NWS Fort Worth
  • Web Master: SR-SRH.Webmaster@noaa.gov
  •  
  • Page last modified: 30-Sep-2016 6:36 PM UTC
USA.gov is the U.S. government's official web portal to all federal, state and local government web resources and services.